Regional Weather Roundup
Issued by NWS

Home | Current Version | Previous Version | Graphics & Text | Print | Product List | Glossary On
Versions: 1 2 3 4 5 6 7 8 9 10 11 12 13 14 15 16 17 18 19 20 21 22 23 24 25 26 27 28 29 30 31 32 33 34 35 36 37 38 39 40 41 42 43 44 45 46 47 48
000
ASUS45 KTFX 031610
RWRMT
MONTANA REGIONAL WEATHER ROUNDUP
NATIONAL WEATHER SERVICE GREAT FALLS MT
1000 AM MDT FRI JUL 03 2015

NOTE: "FAIR" INDICATES FEW OR NO CLOUDS BELOW 12000 FEET WITH NO
SIGNIFICANT WEATHER AND/OR OBSTRUCTIONS TO VISIBILITY.

MTZ001>007-043-031700-
WEST OF THE DIVIDE

CITY           SKY/WX    TMP DP  RH WIND       PRES   REMARKS
KALISPELL      MOSUNNY   78  51  38 VRB5      29.97F
MISSOULA       SUNNY     73  46  38 VRB3      30.02F
BUTTE          SUNNY     72  47  40 NE5       30.13F
MULLAN PASS    SUNNY     73  41  31 VRB5      30.17S
DEER LODGE       N/A     73  48  40 CALM      30.11F
EUREKA           N/A     73  52  46 W3        29.98S
HAMILTON         N/A     77  45  31 S2        30.02F
PLAINS           N/A     76  49  38 CALM      29.97F
RONAN            N/A     80  51  36 SW7       30.03S
$$

MTZ008-052>055-031700-
SOUTHWEST MONTANA

CITY           SKY/WX    TMP DP  RH WIND       PRES   REMARKS
BOZEMAN        SUNNY     72  54  53 VRB6      30.06F
DILLON         SUNNY     71  48  43 W3        30.09F
W YELLOWSTONE  SUNNY     66  45  45 CALM      30.21F
THREE FORKS      N/A     76  65  68 CALM      30.05F
TWIN BRIDGES     N/A     71  47  42 SE2       30.07F
$$

MTZ009-010-012-014-046-048-049-054-031700-
EAST SLOPES AND CENTRAL MONTANA

CITY           SKY/WX    TMP DP  RH WIND       PRES   REMARKS
CUT BANK       MOSUNNY   77  51  40 S5        29.98F
GREAT FALLS    SUNNY     80  52  37 S7        29.98F
MALMSTROM AFB  SUNNY     79  52  39 S6        29.98F
HELENA         SUNNY     77  51  40 NE6       30.02F
CONRAD           N/A     78  61  55 NE2       30.00F
$$

MTZ011-013-016-021-045-047-050-051-031700-
NORTH CENTRAL MONTANA

CITY           SKY/WX    TMP DP  RH WIND       PRES   REMARKS
HAVRE          SUNNY     79  55  43 SE3       29.94F HAZE
LEWISTOWN      SUNNY     80  53  39 E5        30.03F
CHINOOK          N/A     77  59  53 E7        29.94F
FORT BENTON      N/A     77  55  47 CALM      29.96F
$$

MTZ017>020-022>027-061-062-031700-
NORTHEAST MONTANA

CITY           SKY/WX    TMP DP  RH WIND       PRES   REMARKS
GLASGOW        SUNNY     75  58  55 SE6       29.98F HAZE
JORDAN           N/A     77  58  51 VRB3      29.99F
SIDNEY         SUNNY     73  63  68 CALM      30.01F
WOLF POINT     SUNNY     73  62  68 E6        29.99F HAZE
MALTA            N/A     77  60  55 CALM      29.94F
PLENTYWOOD       N/A     73  63  68 S3        30.01F
POPLAR           N/A     75  64  69 CALM      30.00F
$$

MTZ028>42-056>058-031700-
SOUTHCENTRAL AND SOUTHEAST MONTANA

CITY           SKY/WX    TMP DP  RH WIND       PRES   REMARKS
BAKER          CLOUDY    76  59  55 VRB5      30.05S
BILLINGS       SUNNY     73  53  49 CALM      30.04F
LIVINGSTON     SUNNY     74  51  44 CALM      30.07F
MILES CITY     SUNNY     75  57  53 CALM      30.01F
FORSYTH          N/A     77  55  47 E5        30.00F
LAUREL           N/A     74  52  46 CALM      30.02F
ROUNDUP          N/A     74  52  46 S5        29.95F
$$

REGIONAL REPORTS...DAKOTAS

CITY           SKY/WX    TMP DP  RH WIND       PRES   REMARKS
WILLISTON      SUNNY     75  63  66 CALM      30.00F HAZE
MINOT          CLOUDY    73  63  70 CALM      29.99S HAZE
DICKINSON      SUNNY     77  62  59 S5        30.01F HAZE
BEACH          FAIR      75  63  64 CALM      30.04F HAZE
CROSBY         FAIR      72  72 100 S5        30.01F FOG
BISMARCK       MOSUNNY   76  64  66 W3        30.01S HAZE
GRAND FORKS    HAZE      76  66  71 NW5       29.93S VSB 1
FARGO          MOSUNNY   76  66  71 CALM      29.93S HAZE
BUFFALO SD       N/A     76  59  55 SE6       30.00F
RAPID CITY     SUNNY     74  61  63 VRB5      30.08F
$$

REGIONAL REPORTS...WYOMING/IDAHO/WASHINGTON

CITY           SKY/WX    TMP DP  RH WIND       PRES   REMARKS
GILLETTE       SUNNY     76  56  49 S13       30.09F
SHERIDAN       SUNNY     73  52  47 CALM      30.06F
BUFFALO WY     SUNNY     75  53  46 NE6       30.12F
CODY           PTSUNNY   75  52  43 S8        30.11F
YELLOWSTONE LA   N/A     62  48  60 SE5       30.31F
IDAHO FALLS    SUNNY     77  45  32 S9        30.07S
SALMON         SUNNY     72  43  35 CALM      30.04F
BOISE          SUNNY     83  47  28 CALM      29.95R
SPOKANE        MOSUNNY   80  50  34 SE6       29.94S
$$

REGIONAL REPORTS...ALBERTA

CITY           SKY/WX    TMP DP  RH WIND       PRES   REMARKS
EDMONTON       SUNNY     75  57  53 NW9       29.84R
CALGARY        MOSUNNY   79  48  34 NW13      29.94F
LETHBRIDGE     PTSUNNY   75  59  57 NW7       29.92F
MEDICINE HAT   MOSUNNY   82  55  39 S8        29.88F SMOKE
WATERTON GATE    N/A     77  54  44 S6          N/A
CARDSTON         N/A     77  59  53 NW1         N/A
MILK RIVER       N/A     81  57  44 S8          N/A
ONEFOUR          N/A     77  52  41 SE12        N/A
$$

REGIONAL REPORTS...SASKATCHEWAN

CITY           SKY/WX    TMP DP  RH WIND       PRES   REMARKS
SWIFT CURRENT  SUNNY     75  61  60 S16       29.96F HAZE
REGINA         SUNNY     75  64  69 S8        29.97F SMOKE
SASKATOON      PTSUNNY   79  63  57 S8        29.91F
CYPRESS HILLS    N/A     70  52  52 S8          N/A
VAL MARIE        N/A     77  57  50 S8          N/A
ROCKGLEN         N/A     72  61  68 S9          N/A
ASSINIBOIA       N/A     79  64  61 SW7         N/A
$$


USA.gov is the U.S. government's official web portal to all federal, state and local government web resources and services.